Location: Milano
(45.4670°N, 9.2000°E)
Time: 06:27:16
(UTC+02:00)

X-37B - Pass Details

Date: 05 August 2021
Orbit: 381 x 393 km, 45.0° (Epoch: 29 August)

Event Time Altitude Azimuth Distance (km) Brightness Sun altitude
Exits shadow 04:52:46 23° 243° (WSW) 866 1.7 -12.5°
Maximum altitude 04:54:31 63° 167° (SSE) 429 0.6 -12.2°
Drops below altitude 10° 04:57:38 10° 85° (E) 1,398 4.3 -11.8°
Sets 04:59:42 0° 82° (E) 2,253 5.5 -11.5°
